M I D A S
Marine Information and Data Acquisition System
Tripno 796 of the Zeeleeuw from 2004-10-26 06:30:00 to 2004-10-26 17:40:00
Back to CruiseResearch ActivitiesStationsMapUnderway DataData graphs

EquipmentUnitsComments
TimeDGPSUTC
LatitudeDGPSDM.mWGS84
LongitudeDGPSDM.mWGS84
SpeedMeteo Stationm/sRelative wind speed
DirectionMeteo StationdegRelative wind direction
TemperatureMeteo Stationdeg CelciusAir temperature
PressureMeteo StationPaAtmospheric pressure
HumidityMeteo Station%Relative humidity
Missing or incorrect values are displayed as -999
Metereological data collected by the RV Zeeleeuw from 2004-10-26 06:30:00 to 2004-10-26 17:40:00
                                                                                    Next 1000 lines
Time Latitude Longitude Speed Direction Temperature Pressure Humidity
2004-10-26 06:30:11 51°13.596 2°56.113 1.8 126 7.1 101170 89
2004-10-26 06:30:15 51°13.596 2°56.113 1.6 126 7.1 101170 89
2004-10-26 06:30:19 51°13.596 2°56.113 1.7 120 7.1 101170 89
2004-10-26 06:30:26 51°13.596 2°56.112 2.2 120 7.1 101170 89
2004-10-26 06:30:30 51°13.596 2°56.112 1.7 117 7.1 101170 89
2004-10-26 06:30:36 51°13.596 2°56.112 1.5 113 7.1 101170 89
2004-10-26 06:30:41 51°13.596 2°56.112 1.8 103 7.1 101170 89
2004-10-26 06:30:45 51°13.596 2°56.112 2.1 101 7.1 101170 89
2004-10-26 06:30:50 51°13.596 2°56.112 1.4 109 7.1 101170 89
2004-10-26 06:30:56 51°13.596 2°56.112 1.6 110 7.1 101170 89
2004-10-26 06:30:58 51°13.596 2°56.112 1.5 104 7.1 101170 89
2004-10-26 06:31:06 51°13.597 2°56.112 1.5 102 7.1 101170 89
2004-10-26 06:31:10 51°13.596 2°56.112 1.9 88 7.1 101170 89
2004-10-26 06:31:14 51°13.596 2°56.112 1.9 100 7.1 101160 89
2004-10-26 06:31:20 51°13.596 2°56.112 2.2 88 7.1 101160 89
2004-10-26 06:31:26 51°13.596 2°56.112 2.1 83 7.1 101170 89
2004-10-26 06:31:31 51°13.596 2°56.112 2.8 95 7.1 101170 89
2004-10-26 06:31:36 51°13.596 2°56.112 2.6 89 7.1 101170 89
2004-10-26 06:31:40 51°13.596 2°56.112 2.5 114 7.1 101170 89
2004-10-26 06:31:44 51°13.596 2°56.112 2.7 110 7.1 101170 89
2004-10-26 06:31:51 51°13.596 2°56.112 2.1 101 7.1 101170 89
2004-10-26 06:31:55 51°13.596 2°56.112 2.2 106 7.2 101170 89
2004-10-26 06:32:00 51°13.595 2°56.112 3.3 112 7.2 101170 89
2004-10-26 06:32:04 51°13.595 2°56.112 3.3 109 7.1 101170 89
2004-10-26 06:32:11 51°13.596 2°56.112 2.7 126 7.1 101170 89
2004-10-26 06:32:15 51°13.596 2°56.112 2.8 116 7.2 101170 89
2004-10-26 06:32:18 51°13.596 2°56.112 2.6 107 7.2 101170 89
2004-10-26 06:32:26 51°13.596 2°56.112 2.2 101 7.2 101170 89
2004-10-26 06:32:33 51°13.597 2°56.112 2.2 93 7.2 101170 89
2004-10-26 06:32:38 51°13.597 2°56.112 2.2 97 7.2 101170 89
2004-10-26 06:32:43 51°13.597 2°56.112 2.1 99 7.2 101170 89
2004-10-26 06:32:57 51°13.597 2°56.112 2.4 102 7.2 101170 89
2004-10-26 06:33:00 51°13.597 2°56.112 2.2 111 7.2 101170 89
2004-10-26 06:33:06 51°13.597 2°56.112 2.5 115 7.2 101170 89
2004-10-26 06:33:10 51°13.597 2°56.112 2.9 121 7.2 101170 89
2004-10-26 06:33:17 51°13.596 2°56.112 3.3 115 7.2 101170 89
2004-10-26 06:33:20 51°13.596 2°56.112 4 122 7.2 101170 89
2004-10-26 06:33:26 51°13.596 2°56.112 3.5 115 7.2 101170 89
2004-10-26 06:33:30 51°13.596 2°56.112 3.4 127 7.2 101170 89
2004-10-26 06:33:36 51°13.596 2°56.112 3.1 120 7.2 101170 89
2004-10-26 06:33:42 51°13.597 2°56.112 3 125 7.2 101170 89
2004-10-26 06:33:46 51°13.597 2°56.112 2.4 111 7.2 101170 89
2004-10-26 06:33:50 51°13.597 2°56.112 2.5 127 7.2 101170 89
2004-10-26 06:33:55 51°13.597 2°56.112 2.5 114 7.2 101170 89
2004-10-26 06:34:02 51°13.597 2°56.112 2.3 133 7.2 101170 89
2004-10-26 06:34:07 51°13.597 2°56.112 1.6 108 7.2 101170 89
2004-10-26 06:34:11 51°13.597 2°56.113 1.6 121 7.2 101170 89
2004-10-26 06:34:14 51°13.597 2°56.112 2 133 7.2 101170 89
2004-10-26 06:34:26 51°13.597 2°56.112 2.3 117 7.2 101170 89
2004-10-26 06:34:30 51°13.597 2°56.112 1.7 83 7.2 101170 89
2004-10-26 06:34:40 51°13.596 2°56.112 2.4 75 7.2 101170 89
2004-10-26 06:34:46 51°13.596 2°56.112 2.7 88 7.2 101170 89
2004-10-26 06:34:51 51°13.596 2°56.112 2.7 125 7.2 101170 89
2004-10-26 06:34:55 51°13.596 2°56.112 2.6 123 7.2 101170 89
2004-10-26 06:34:59 51°13.597 2°56.113 1.9 149 7.2 101170 89
2004-10-26 06:35:03 51°13.597 2°56.113 1.7 118 7.2 101170 89
2004-10-26 06:35:16 51°13.598 2°56.113 2.3 106 7.2 101170 89
2004-10-26 06:35:20 51°13.598 2°56.113 1.9 130 7.2 101170 89
2004-10-26 06:35:26 51°13.597 2°56.112 2.1 123 7.2 101170 89
2004-10-26 06:35:31 51°13.596 2°56.112 2.6 122 7.2 101170 89
2004-10-26 06:35:36 51°13.595 2°56.112 2.5 112 7.2 101170 89
2004-10-26 06:35:38 51°13.595 2°56.112 2.6 112 7.2 101170 89
2004-10-26 06:35:46 51°13.595 2°56.112 2.2 96 7.2 101170 89
2004-10-26 06:35:50 51°13.595 2°56.112 3.3 105 7.2 101170 89
2004-10-26 06:35:54 51°13.595 2°56.112 3.1 104 7.2 101170 89
2004-10-26 06:36:00 51°13.596 2°56.112 2.2 118 7.2 101170 89
2004-10-26 06:36:06 51°13.596 2°56.112 2.4 121 7.2 101170 89
2004-10-26 06:36:11 51°13.596 2°56.112 3 118 7.2 101170 89
2004-10-26 06:36:14 51°13.596 2°56.112 3.2 95 7.2 101180 89
2004-10-26 06:36:24 51°13.595 2°56.112 2.3 123 7.2 101170 89
2004-10-26 06:36:29 51°13.595 2°56.112 2.2 105 7.2 101170 89
2004-10-26 06:36:34 51°13.595 2°56.113 2.4 92 7.2 101170 89
2004-10-26 06:36:38 51°13.595 2°56.113 2 103 7.2 101170 89
2004-10-26 06:36:47 51°13.594 2°56.113 2.4 119 7.2 101170 89
2004-10-26 06:36:52 51°13.594 2°56.113 2.6 123 7.2 101180 89
2004-10-26 06:36:58 51°13.594 2°56.113 3.3 112 7.2 101180 89
2004-10-26 06:37:03 51°13.594 2°56.113 2.7 128 7.2 101180 89
2004-10-26 06:37:06 51°13.594 2°56.113 3.8 111 7.2 101180 89
2004-10-26 06:37:10 51°13.594 2°56.113 3 111 7.2 101180 89
2004-10-26 06:37:18 51°13.594 2°56.113 5 109 7.2 101180 89
2004-10-26 06:37:26 51°13.594 2°56.113 3.8 115 7.2 101180 89
2004-10-26 06:37:32 51°13.594 2°56.113 3.2 113 7.2 101180 89
2004-10-26 06:37:38 51°13.594 2°56.113 3.1 121 7.2 101180 89
2004-10-26 06:37:42 51°13.594 2°56.113 3.4 120 7.2 101180 89
2004-10-26 06:37:52 51°13.594 2°56.113 3.1 104 7.2 101180 89
2004-10-26 06:37:56 51°13.594 2°56.113 3.1 114 7.2 101180 89
2004-10-26 06:38:02 51°13.594 2°56.113 3.5 118 7.2 101180 89
2004-10-26 06:38:07 51°13.594 2°56.113 2.8 97 7.2 101180 89
2004-10-26 06:38:12 51°13.594 2°56.113 1.9 97 7.2 101180 89
2004-10-26 06:38:16 51°13.593 2°56.113 2.2 122 7.2 101180 89
2004-10-26 06:38:22 51°13.593 2°56.113 2.5 113 7.2 101180 89
2004-10-26 06:38:27 51°13.593 2°56.113 2.6 87 7.2 101180 89
2004-10-26 06:38:32 51°13.593 2°56.113 2.8 81 7.2 101180 89
2004-10-26 06:38:37 51°13.593 2°56.113 2.3 118 7.2 101180 89
2004-10-26 06:38:42 51°13.592 2°56.113 3.1 108 7.2 101180 89
2004-10-26 06:38:46 51°13.592 2°56.113 2.9 99 7.2 101180 89
2004-10-26 06:38:50 51°13.592 2°56.112 2.4 45 7.2 101180 89
2004-10-26 06:38:55 51°13.592 2°56.113 1.8 140 7.2 101180 89
2004-10-26 06:39:02 51°13.593 2°56.113 2 135 7.2 101180 89
2004-10-26 06:39:07 51°13.593 2°56.113 2.4 111 7.2 101180 89
2004-10-26 06:39:12 51°13.593 2°56.113 2.6 133 7.2 101180 89
2004-10-26 06:39:15 51°13.593 2°56.113 2.5 133 7.2 101180 89
2004-10-26 06:39:22 51°13.593 2°56.113 2.4 123 7.2 101180 89
2004-10-26 06:39:26 51°13.594 2°56.113 2.2 111 7.2 101180 89
2004-10-26 06:39:31 51°13.594 2°56.113 2 124 7.2 101180 89
2004-10-26 06:39:35 51°13.594 2°56.113 1.8 105 7.2 101170 89
2004-10-26 06:39:42 51°13.593 2°56.113 2.2 137 7.2 101170 89
2004-10-26 06:39:43 51°13.593 2°56.113 2 131 7.2 101180 89
2004-10-26 06:39:55 51°13.593 2°56.113 2.6 128 7.2 101180 89
2004-10-26 06:39:59 51°13.594 2°56.114 2.9 126 7.2 101180 89
2004-10-26 06:40:06 51°13.594 2°56.114 2.7 133 7.2 101180 89
2004-10-26 06:40:11 51°13.595 2°56.114 2.5 113 7.2 101180 89
2004-10-26 06:40:15 51°13.596 2°56.114 2.3 114 7.2 101180 89
2004-10-26 06:40:20 51°13.595 2°56.114 2.3 101 7.2 101180 89
2004-10-26 06:40:26 51°13.595 2°56.114 2.4 94 7.2 101170 89
2004-10-26 06:40:31 51°13.595 2°56.114 1.8 97 7.2 101170 89
2004-10-26 06:40:36 51°13.595 2°56.114 2.2 116 7.2 101170 89
2004-10-26 06:40:38 51°13.595 2°56.114 2.6 127 7.2 101170 89
2004-10-26 06:40:46 51°13.595 2°56.113 2.5 126 7.2 101180 89
2004-10-26 06:40:50 51°13.595 2°56.113 2.6 103 7.2 101180 89
2004-10-26 06:40:54 51°13.596 2°56.114 2.2 98 7.2 101170 89
2004-10-26 06:41:00 51°13.596 2°56.114 2.1 113 7.2 101170 89
2004-10-26 06:41:06 51°13.596 2°56.114 2.4 111 7.2 101170 89
2004-10-26 06:41:11 51°13.596 2°56.114 2.9 113 7.2 101170 89
2004-10-26 06:41:14 51°13.596 2°56.114 3.1 102 7.2 101170 89
2004-10-26 06:41:20 51°13.596 2°56.114 2.8 105 7.2 101170 89
2004-10-26 06:41:26 51°13.596 2°56.114 2.5 107 7.2 101180 89
2004-10-26 06:41:31 51°13.596 2°56.114 1.7 120 7.2 101180 89
2004-10-26 06:41:36 51°13.596 2°56.113 1.7 115 7.2 101180 89
2004-10-26 06:41:38 51°13.596 2°56.113 2.2 112 7.2 101180 89
2004-10-26 06:41:46 51°13.596 2°56.113 2 125 7.3 101170 89
2004-10-26 06:41:50 51°13.596 2°56.113 2.3 111 7.3 101170 89
2004-10-26 06:41:54 51°13.595 2°56.113 2.3 103 7.2 101170 89
2004-10-26 06:42:00 51°13.595 2°56.113 2.9 101 7.2 101170 89
2004-10-26 06:42:04 51°13.595 2°56.113 2.1 102 7.2 101180 89
2004-10-26 06:42:11 51°13.596 2°56.113 2.3 144 7.2 101180 89
2004-10-26 06:42:14 51°13.596 2°56.112 3.5 150 7.2 101180 89
2004-10-26 06:42:20 51°13.596 2°56.11 3 158 7.2 101180 89
2004-10-26 06:42:24 51°13.597 2°56.108 3 168 7.2 101170 89
2004-10-26 06:42:34 51°13.599 2°56.101 3.2 154 7.2 101180 89
2004-10-26 06:42:41 51°13.601 2°56.095 3.3 136 7.2 101180 89
2004-10-26 06:42:46 51°13.603 2°56.09 3.1 141 7.2 101170 89
2004-10-26 06:42:51 51°13.605 2°56.084 3.3 133 7.2 101170 89
2004-10-26 06:42:56 51°13.606 2°56.078 2.9 134 7.2 101170 89
2004-10-26 06:42:59 51°13.608 2°56.075 2.7 136 7.2 101170 89
2004-10-26 06:43:06 51°13.61 2°56.066 2.9 136 7.2 101180 89
2004-10-26 06:43:11 51°13.612 2°56.06 3.3 162 7.2 101180 89
2004-10-26 06:43:16 51°13.614 2°56.053 3 147 7.2 101180 89
2004-10-26 06:43:20 51°13.615 2°56.047 3.4 139 7.2 101180 89
2004-10-26 06:43:26 51°13.617 2°56.038 3.4 148 7.2 101180 89
2004-10-26 06:43:30 51°13.619 2°56.031 4.2 152 7.2 101180 89
2004-10-26 06:43:35 51°13.62 2°56.023 3.9 147 7.2 101180 89
2004-10-26 06:43:39 51°13.622 2°56.016 3.6 151 7.2 101180 89
2004-10-26 06:43:46 51°13.625 2°56.004 3.2 158 7.2 101180 89
2004-10-26 06:43:51 51°13.627 2°55.996 3.4 149 7.2 101180 89
2004-10-26 06:43:54 51°13.629 2°55.99 3.1 157 7.2 101180 89
2004-10-26 06:44:00 51°13.632 2°55.98 2.8 155 7.2 101180 89
2004-10-26 06:44:06 51°13.635 2°55.969 3.3 148 7.2 101180 89
2004-10-26 06:44:11 51°13.638 2°55.96 2.9 140 7.2 101180 89
2004-10-26 06:44:14 51°13.639 2°55.955 2.9 140 7.2 101170 89
2004-10-26 06:44:21 51°13.643 2°55.942 4 154 7.2 101170 89
2004-10-26 06:44:26 51°13.646 2°55.933 2.8 162 7.2 101180 89
2004-10-26 06:44:30 51°13.648 2°55.926 3.6 157 7.2 101180 89
2004-10-26 06:44:36 51°13.651 2°55.916 4.4 162 7.2 101170 89
2004-10-26 06:44:39 51°13.653 2°55.911 4.2 164 7.2 101170 89
2004-10-26 06:44:46 51°13.656 2°55.899 4 151 7.2 101180 89
2004-10-26 06:44:51 51°13.659 2°55.891 4.4 154 7.2 101180 89
2004-10-26 06:44:56 51°13.661 2°55.882 4.9 150 7.2 101180 89
2004-10-26 06:45:00 51°13.663 2°55.876 4.2 144 7.2 101180 89
2004-10-26 06:45:06 51°13.665 2°55.866 3.9 151 7.2 101180 89
2004-10-26 06:45:11 51°13.667 2°55.858 4.2 145 7.2 101180 89
2004-10-26 06:45:16 51°13.668 2°55.85 3.3 154 7.2 101180 89
2004-10-26 06:45:18 51°13.669 2°55.846 4 160 7.2 101180 89
2004-10-26 06:45:26 51°13.671 2°55.832 4 163 7.2 101180 89
2004-10-26 06:45:31 51°13.673 2°55.824 3.9 156 7.2 101180 89
2004-10-26 06:45:36 51°13.674 2°55.816 3.8 151 7.2 101180 89
2004-10-26 06:45:40 51°13.675 2°55.809 3.8 147 7.2 101180 89
2004-10-26 06:45:46 51°13.677 2°55.799 3.6 143 7.2 101180 89
2004-10-26 06:45:51 51°13.678 2°55.791 4.9 151 7.2 101180 89
2004-10-26 06:45:56 51°13.679 2°55.783 4.6 156 7.2 101180 89
2004-10-26 06:45:59 51°13.68 2°55.778 3.6 147 7.2 101180 89
2004-10-26 06:46:06 51°13.681 2°55.769 3.7 175 7.2 101180 89
2004-10-26 06:46:11 51°13.682 2°55.763 3.3 161 7.2 101180 89
2004-10-26 06:46:15 51°13.683 2°55.76 2.9 159 7.2 101180 89
2004-10-26 06:46:19 51°13.683 2°55.758 2.2 167 7.2 101180 89
2004-10-26 06:46:25 51°13.684 2°55.756 2.5 150 7.2 101180 89
2004-10-26 06:46:30 51°13.684 2°55.756 1.9 142 7.2 101180 89
2004-10-26 06:46:35 51°13.684 2°55.757 1.8 144 7.2 101180 89
2004-10-26 06:46:40 51°13.685 2°55.758 2 155 7.2 101180 89
2004-10-26 06:46:46 51°13.687 2°55.761 1.4 146 7.2 101180 89
2004-10-26 06:46:51 51°13.689 2°55.763 0.5 159 7.2 101180 89
2004-10-26 06:46:56 51°13.692 2°55.766 0.5 181 7.2 101180 89
2004-10-26 06:47:00 51°13.694 2°55.768 1.7 264 7.2 101180 89
2004-10-26 06:47:04 51°13.696 2°55.769 1.3 240 7.2 101180 89
2004-10-26 06:47:10 51°13.699 2°55.771 1 173 7.2 101180 89
2004-10-26 06:47:16 51°13.701 2°55.772 0.9 215 7.2 101180 89
2004-10-26 06:47:19 51°13.701 2°55.772 3.1 210 7.2 101180 89
2004-10-26 06:47:26 51°13.701 2°55.772 3.2 190 7.3 101180 89
2004-10-26 06:47:30 51°13.701 2°55.772 3.6 210 7.3 101180 89
2004-10-26 06:47:36 51°13.7 2°55.771 4.6 210 7.3 101180 89
2004-10-26 06:47:42 51°13.698 2°55.771 3.3 195 7.3 101180 89
2004-10-26 06:47:46 51°13.697 2°55.77 3.6 202 7.3 101180 89
2004-10-26 06:47:54 51°13.694 2°55.769 2.7 215 7.3 101180 89
2004-10-26 06:47:58 51°13.693 2°55.769 2.9 232 7.3 101180 89
2004-10-26 06:48:06 51°13.693 2°55.769 1.3 249 7.3 101190 89
2004-10-26 06:48:10 51°13.693 2°55.769 1.6 242 7.3 101190 89
2004-10-26 06:48:15 51°13.695 2°55.769 1.5 241 7.3 101190 89
2004-10-26 06:48:19 51°13.697 2°55.768 1.3 242 7.3 101190 89
2004-10-26 06:48:24 51°13.7 2°55.767 2.4 245 7.3 101190 89
2004-10-26 06:48:30 51°13.705 2°55.763 2.3 312 7.3 101190 89
2004-10-26 06:48:35 51°13.71 2°55.758 3.9 317 7.3 101180 89
2004-10-26 06:48:40 51°13.716 2°55.752 3.7 326 7.3 101180 89
2004-10-26 06:48:44 51°13.72 2°55.746 4.1 322 7.3 101180 89
2004-10-26 06:48:50 51°13.728 2°55.737 4.1 327 7.3 101180 89
2004-10-26 06:48:55 51°13.736 2°55.728 3.5 337 7.3 101180 89
2004-10-26 06:49:00 51°13.744 2°55.72 4.3 333 7.3 101180 89
2004-10-26 06:49:04 51°13.752 2°55.713 3.6 331 7.3 101180 89
2004-10-26 06:49:10 51°13.762 2°55.701 3.6 336 7.3 101180 89
2004-10-26 06:49:15 51°13.771 2°55.692 3.5 346 7.3 101180 88
2004-10-26 06:49:19 51°13.778 2°55.684 3.2 358 7.3 101180 88
2004-10-26 06:49:23 51°13.786 2°55.676 3.9 3 7.3 101180 88
2004-10-26 06:49:30 51°13.8 2°55.662 5.9 341 7.3 101180 88
2004-10-26 06:49:35 51°13.81 2°55.653 4.7 339 7.3 101180 88
2004-10-26 06:49:40 51°13.821 2°55.643 4.5 331 7.3 101180 88
2004-10-26 06:49:44 51°13.829 2°55.636 4.2 325 7.4 101180 88
2004-10-26 06:49:50 51°13.843 2°55.625 3.7 323 7.4 101180 88
2004-10-26 06:49:55 51°13.853 2°55.616 4.5 338 7.4 101180 89
2004-10-26 06:49:59 51°13.862 2°55.609 3.6 350 7.4 101180 89
2004-10-26 06:50:04 51°13.874 2°55.601 3.6 331 7.4 101180 89
2004-10-26 06:50:15 51°13.9 2°55.584 4.1 323 7.4 101180 89
2004-10-26 06:50:20 51°13.914 2°55.578 3.3 322 7.4 101180 89
2004-10-26 06:50:26 51°13.928 2°55.569 3.3 321 7.4 101190 89
2004-10-26 06:50:30 51°13.937 2°55.563 3.3 43 7.4 101190 89
2004-10-26 06:50:34 51°13.945 2°55.558 2.7 334 7.4 101180 89
2004-10-26 06:50:40 51°13.958 2°55.551 3.6 335 7.4 101180 89
2004-10-26 06:50:44 51°13.965 2°55.545 3.8 341 7.4 101180 89
2004-10-26 06:50:51 51°13.979 2°55.535 3.4 309 7.4 101180 89
2004-10-26 06:50:54 51°13.985 2°55.534 2.8 305 7.4 101180 88
2004-10-26 06:50:59 51°13.994 2°55.528 3 311 7.4 101180 88
2004-10-26 06:51:06 51°14.007 2°55.52 3.1 313 7.5 101190 88
2004-10-26 06:51:10 51°14.013 2°55.516 3.4 319 7.5 101190 88
2004-10-26 06:51:15 51°14.022 2°55.511 3.1 324 7.5 101190 88
2004-10-26 06:51:20 51°14.031 2°55.506 3.8 321 7.5 101190 88
2004-10-26 06:51:26 51°14.042 2°55.5 3.5 309 7.5 101180 88
2004-10-26 06:51:30 51°14.049 2°55.496 2.7 333 7.5 101180 88
2004-10-26 06:51:34 51°14.056 2°55.492 2.5 328 7.5 101190 88
2004-10-26 06:51:40 51°14.067 2°55.485 2.3 338 7.5 101190 88
2004-10-26 06:51:44 51°14.074 2°55.481 2.2 335 7.5 101190 88
2004-10-26 06:51:51 51°14.086 2°55.473 3.1 323 7.5 101190 88
2004-10-26 06:51:56 51°14.095 2°55.468 3.3 323 7.5 101190 88
2004-10-26 06:51:59 51°14.1 2°55.464 3.1 316 7.5 101190 88
2004-10-26 06:52:06 51°14.113 2°55.456 3.3 317 7.5 101190 88
2004-10-26 06:52:11 51°14.122 2°55.45 3.5 310 7.5 101190 88
2004-10-26 06:52:15 51°14.13 2°55.444 3.8 303 7.5 101190 88
2004-10-26 06:52:21 51°14.141 2°55.436 3.6 327 7.5 101190 88
2004-10-26 06:52:26 51°14.151 2°55.427 3.4 319 7.6 101190 88
2004-10-26 06:52:31 51°14.161 2°55.418 4.3 319 7.6 101190 88
2004-10-26 06:52:36 51°14.172 2°55.409 3.8 322 7.6 101190 88
2004-10-26 06:52:40 51°14.18 2°55.4 4.4 323 7.6 101190 88
2004-10-26 06:52:46 51°14.193 2°55.387 4.9 316 7.6 101190 88
2004-10-26 06:52:51 51°14.205 2°55.376 4.5 327 7.6 101190 88
2004-10-26 06:52:55 51°14.214 2°55.367 4.8 335 7.6 101180 88
2004-10-26 06:53:00 51°14.225 2°55.353 5.6 327 7.6 101180 88
2004-10-26 06:53:06 51°14.238 2°55.336 5.7 334 7.6 101180 88
2004-10-26 06:53:11 51°14.249 2°55.321 6 339 7.6 101180 88
2004-10-26 06:53:14 51°14.255 2°55.312 5.4 332 7.7 101190 88
2004-10-26 06:53:20 51°14.267 2°55.292 5.9 350 7.7 101190 88
2004-10-26 06:53:24 51°14.274 2°55.278 6.5 355 7.7 101180 89
2004-10-26 06:53:31 51°14.287 2°55.253 7.2 355 7.7 101180 89
2004-10-26 06:53:36 51°14.296 2°55.234 5.9 349 7.7 101180 89
2004-10-26 06:53:40 51°14.303 2°55.218 5.8 349 7.7 101180 89
2004-10-26 06:53:46 51°14.313 2°55.194 5.9 349 7.8 101180 89
2004-10-26 06:53:50 51°14.319 2°55.178 7.1 346 7.8 101180 89
2004-10-26 06:53:54 51°14.326 2°55.161 7.4 340 7.8 101180 89
2004-10-26 06:54:00 51°14.337 2°55.137 6.6 357 7.8 101180 89
2004-10-26 06:54:06 51°14.348 2°55.111 7 348 7.8 101180 89
2004-10-26 06:54:11 51°14.357 2°55.089 8.2 333 7.8 101180 89
2004-10-26 06:54:16 51°14.366 2°55.067 8.5 331 7.9 101180 89
2004-10-26 06:54:20 51°14.373 2°55.05 8.7 323 7.9 101180 89
2004-10-26 06:54:26 51°14.384 2°55.023 8.4 324 8 101180 90
2004-10-26 06:54:34 51°14.398 2°54.986 8.1 322 8.1 101180 90
2004-10-26 06:54:40 51°14.409 2°54.958 8 321 8.1 101180 90
2004-10-26 06:54:46 51°14.421 2°54.931 7.8 322 8.1 101160 90
2004-10-26 06:54:51 51°14.434 2°54.91 8.6 322 8.1 101160 90
2004-10-26 06:54:56 51°14.445 2°54.888 8.8 321 8.1 101170 90
2004-10-26 06:54:59 51°14.452 2°54.875 9.3 319 8.1 101170 90
2004-10-26 06:55:06 51°14.469 2°54.844 9.3 320 8.2 101180 90
2004-10-26 06:55:11 51°14.482 2°54.823 8.4 44 8.2 101180 90
2004-10-26 06:55:15 51°14.493 2°54.807 8.1 320 8.2 101170 89
2004-10-26 06:55:21 51°14.509 2°54.785 8.7 310 8.2 101170 89
2004-10-26 06:55:26 51°14.524 2°54.766 8.8 316 8.2 101170 89
2004-10-26 06:55:31 51°14.538 2°54.749 7.9 314 8.2 101170 89
2004-10-26 06:55:36 51°14.553 2°54.731 8.3 40 8.2 101160 89
2004-10-26 06:55:39 51°14.562 2°54.721 7.4 322 8.2 101160 89
2004-10-26 06:55:46 51°14.584 2°54.697 7.6 328 8.2 101140 89
2004-10-26 06:55:51 51°14.599 2°54.68 7.3 327 8.2 101140 89
2004-10-26 06:55:56 51°14.614 2°54.662 7.5 323 8.2 101140 89
2004-10-26 06:55:58 51°14.62 2°54.655 9.2 312 8.2 101140 89
2004-10-26 06:56:06 51°14.643 2°54.626 10 320 8.4 101140 89
2004-10-26 06:56:11 51°14.658 2°54.607 6.6 327 8.4 101140 89
2004-10-26 06:56:15 51°14.67 2°54.592 7.2 322 8.3 101150 89
2004-10-26 06:56:20 51°14.685 2°54.574 6.4 320 8.3 101150 89
2004-10-26 06:56:26 51°14.703 2°54.552 7.5 325 8.4 101150 89
2004-10-26 06:56:30 51°14.715 2°54.537 9.7 321 8.4 101150 89
2004-10-26 06:56:36 51°14.734 2°54.516 8.8 331 8.4 101140 89
2004-10-26 06:56:41 51°14.749 2°54.498 7.4 327 8.4 101140 89
2004-10-26 06:56:46 51°14.765 2°54.481 6.2 342 8.4 101150 89
2004-10-26 06:56:50 51°14.777 2°54.467 5.3 329 8.4 101150 89
2004-10-26 06:56:56 51°14.795 2°54.445 6 331 8.5 101150 89
2004-10-26 06:57:00 51°14.808 2°54.431 8.4 328 8.5 101150 89
2004-10-26 06:57:06 51°14.826 2°54.41 6.7 333 8.6 101140 90
2004-10-26 06:57:11 51°14.841 2°54.392 10.2 324 8.6 101140 90
2004-10-26 06:57:15 51°14.853 2°54.378 9.3 328 8.6 101150 90
2004-10-26 06:57:19 51°14.865 2°54.364 8.6 325 8.6 101150 90
2004-10-26 06:57:26 51°14.886 2°54.339 9 327 8.6 101150 90
2004-10-26 06:57:31 51°14.901 2°54.321 7.8 335 8.6 101150 90
2004-10-26 06:57:34 51°14.91 2°54.31 6.7 336 8.7 101150 90
2004-10-26 06:57:39 51°14.925 2°54.292 6.1 352 8.7 101150 90
2004-10-26 06:57:46 51°14.946 2°54.268 6.8 355 8.8 101140 90
2004-10-26 06:57:50 51°14.958 2°54.254 8.5 341 8.8 101140 90
2004-10-26 06:57:56 51°14.976 2°54.233 8.6 340 8.8 101140 90
2004-10-26 06:57:58 51°14.982 2°54.226 6.9 340 8.8 101140 90
2004-10-26 06:58:06 51°15.006 2°54.197 6.7 343 8.9 101150 90
2004-10-26 06:58:11 51°15.021 2°54.18 8.7 339 8.9 101150 90
2004-10-26 06:58:15 51°15.032 2°54.165 8.2 341 8.9 101150 90
2004-10-26 06:58:18 51°15.041 2°54.155 7.9 344 8.9 101150 90
2004-10-26 06:58:29 51°15.074 2°54.115 7.9 340 8.9 101150 90
2004-10-26 06:58:34 51°15.089 2°54.097 7.5 333 8.9 101160 90
2004-10-26 06:58:38 51°15.101 2°54.083 8.3 338 8.9 101160 90
2004-10-26 06:58:44 51°15.119 2°54.061 7.8 332 9 101150 90
2004-10-26 06:58:48 51°15.132 2°54.047 9.6 336 9 101150 90
2004-10-26 06:58:54 51°15.15 2°54.026 11.9 335 9 101150 90
2004-10-26 06:58:59 51°15.165 2°54.008 10.7 337 9 101150 90
2004-10-26 06:59:04 51°15.18 2°53.99 12.5 338 9 101170 90
2004-10-26 06:59:08 51°15.193 2°53.976 10.9 341 9 101170 90
2004-10-26 06:59:14 51°15.211 2°53.954 12.1 341 9.1 101150 90
2004-10-26 06:59:19 51°15.226 2°53.937 12.1 346 9.1 101150 90
2004-10-26 06:59:23 51°15.238 2°53.922 12.9 345 9.2 101130 91
2004-10-26 06:59:28 51°15.254 2°53.905 12.5 346 9.2 101130 91
2004-10-26 06:59:34 51°15.272 2°53.883 14.2 343 9.3 101170 91
2004-10-26 06:59:39 51°15.287 2°53.865 13.5 341 9.3 101170 91
2004-10-26 06:59:43 51°15.299 2°53.851 13.2 345 9.4 101130 91
2004-10-26 06:59:48 51°15.315 2°53.834 13.3 340 9.4 101130 91
2004-10-26 06:59:54 51°15.333 2°53.813 12.8 340 9.6 101160 91
2004-10-26 06:59:58 51°15.345 2°53.799 13.5 342 9.6 101160 91
2004-10-26 07:00:03 51°15.361 2°53.781 13.4 340 9.7 101120 91
2004-10-26 07:00:09 51°15.379 2°53.76 13.1 344 9.7 101120 91
2004-10-26 07:00:14 51°15.394 2°53.742 14 349 9.8 101120 91
2004-10-26 07:00:19 51°15.41 2°53.724 13.3 345 9.8 101120 91
2004-10-26 07:00:23 51°15.422 2°53.71 12.5 343 9.9 101120 91
2004-10-26 07:00:27 51°15.434 2°53.695 12.2 344 9.9 101120 91
2004-10-26 07:00:34 51°15.455 2°53.67 13.2 348 10 101120 90
2004-10-26 07:00:39 51°15.47 2°53.652 12.7 345 10 101120 90
2004-10-26 07:00:44 51°15.486 2°53.635 13.2 345 10.1 101120 90
2004-10-26 07:00:48 51°15.498 2°53.621 12.6 342 10.1 101120 90
2004-10-26 07:00:54 51°15.517 2°53.601 12 345 10.2 101120 89
2004-10-26 07:00:59 51°15.533 2°53.587 12.8 341 10.2 101120 89
2004-10-26 07:01:03 51°15.546 2°53.576 12.3 339 10.3 101120 88
2004-10-26 07:01:08 51°15.563 2°53.564 12.3 341 10.3 101120 88
2004-10-26 07:01:14 51°15.583 2°53.549 12.8 337 10.3 101120 87
2004-10-26 07:01:19 51°15.6 2°53.538 13.1 334 10.3 101120 87
2004-10-26 07:01:22 51°15.61 2°53.531 12.5 334 10.4 101120 87
2004-10-26 07:01:28 51°15.631 2°53.518 12.7 333 10.4 101120 87
2004-10-26 07:01:34 51°15.651 2°53.505 11.7 334 10.5 101120 86
2004-10-26 07:01:39 51°15.669 2°53.495 11.3 334 10.5 101120 86
2004-10-26 07:01:44 51°15.686 2°53.484 12.9 335 10.5 101120 86
2004-10-26 07:01:48 51°15.699 2°53.476 13.1 338 10.5 101120 86
2004-10-26 07:01:54 51°15.72 2°53.463 12 337 10.6 101120 85
2004-10-26 07:01:59 51°15.737 2°53.452 11.5 337 10.6 101120 85
2004-10-26 07:02:03 51°15.751 2°53.443 11.4 332 10.7 101120 85
2004-10-26 07:02:08 51°15.768 2°53.432 12.9 333 10.7 101120 85
2004-10-26 07:02:14 51°15.788 2°53.418 12 333 10.7 101120 85
2004-10-26 07:02:19 51°15.805 2°53.407 11.3 333 10.7 101120 85
2004-10-26 07:02:23 51°15.819 2°53.398 11.9 331 10.8 101120 84
2004-10-26 07:02:28 51°15.836 2°53.387 11.8 329 10.8 101120 84
2004-10-26 07:02:34 51°15.856 2°53.373 12.9 330 10.9 101120 84
2004-10-26 07:02:39 51°15.873 2°53.362 13.5 331 10.9 101120 84
2004-10-26 07:02:42 51°15.883 2°53.355 12.5 329 10.9 101120 83
2004-10-26 07:02:49 51°15.907 2°53.34 12.2 330 10.9 101120 83
2004-10-26 07:02:54 51°15.924 2°53.328 12.7 330 11 101160 83
2004-10-26 07:02:59 51°15.941 2°53.317 11.9 330 11 101160 83
2004-10-26 07:03:02 51°15.951 2°53.31 12 332 11 101110 82
2004-10-26 07:03:09 51°15.975 2°53.294 12.5 324 11 101110 82
2004-10-26 07:03:11 51°15.981 2°53.289 13.1 327 11 101110 82
2004-10-26 07:03:19 51°16.008 2°53.272 11.8 320 11 101110 82
2004-10-26 07:03:23 51°16.022 2°53.263 11.5 339 11.1 101110 81
2004-10-26 07:03:28 51°16.039 2°53.252 11.4 335 11.1 101110 81
2004-10-26 07:03:34 51°16.06 2°53.239 12 333 11.1 101120 81
2004-10-26 07:03:39 51°16.077 2°53.228 12.1 335 11.1 101120 81
2004-10-26 07:03:44 51°16.094 2°53.217 13.1 335 11.2 101110 80
2004-10-26 07:03:47 51°16.104 2°53.211 12.3 330 11.2 101110 80
2004-10-26 07:03:54 51°16.128 2°53.196 12.4 332 11.2 101170 80
2004-10-26 07:03:58 51°16.142 2°53.187 11.3 337 11.2 101170 80
2004-10-26 07:04:08 51°16.176 2°53.166 12 332 11.2 101170 80
2004-10-26 07:04:12 51°16.189 2°53.157 11.3 336 11.3 101120 80
2004-10-26 07:04:18 51°16.21 2°53.145 11.4 334 11.3 101120 80
2004-10-26 07:04:23 51°16.227 2°53.134 11.8 332 11.3 101120 79
2004-10-26 07:04:28 51°16.244 2°53.123 11.2 332 11.3 101120 79
2004-10-26 07:04:31 51°16.254 2°53.117 11.6 333 11.3 101120 79
2004-10-26 07:04:38 51°16.278 2°53.102 11.5 336 11.3 101120 79
2004-10-26 07:04:42 51°16.292 2°53.093 12.5 334 11.4 101120 78
2004-10-26 07:04:48 51°16.312 2°53.08 11   11.4 101120 78
2004-10-26 07:04:52 51°16.326 2°53.071 11.7 339 11.4 101120 78
2004-10-26 07:04:56 51°16.34 2°53.062 12.2 341 11.4 101120 78
2004-10-26 07:05:03 51°16.363 2°53.047 12 339 11.4 101130 78
2004-10-26 07:05:06 51°16.374 2°53.04 12.2 338 11.4 101130 78
2004-10-26 07:05:12 51°16.394 2°53.027 13.1 337 11.5 101120 78
2004-10-26 07:05:16 51°16.407 2°53.018 11.7 341 11.5 101120 78
2004-10-26 07:05:22 51°16.428 2°53.004 11.5 340 11.5 101120 77
2004-10-26 07:05:27 51°16.445 2°52.993 11.7 341 11.5 101120 77
2004-10-26 07:05:32 51°16.462 2°52.982 11.5 338 11.5 101120 77
2004-10-26 07:05:36 51°16.475 2°52.974 10.9 334 11.5 101120 77
2004-10-26 07:05:42 51°16.496 2°52.961 11.2 337 11.5 101120 76
2004-10-26 07:05:48 51°16.516 2°52.948 12.1 340 11.5 101120 76
2004-10-26 07:05:52 51°16.53 2°52.939 10.9 341 11.5 101120 76
2004-10-26 07:05:55 51°16.54 2°52.933 12.6 338 11.5 101120 76
2004-10-26 07:06:02 51°16.564 2°52.918 11.4 337 11.5 101140 76
2004-10-26 07:06:08 51°16.584 2°52.905 11.3 335 11.5 101140 76
2004-10-26 07:06:11 51°16.594 2°52.899 11 337 11.5 101130 75
2004-10-26 07:06:18 51°16.618 2°52.884 10.8 340 11.5 101130 75
2004-10-26 07:06:23 51°16.635 2°52.873 11.4 339 11.5 101140 75
2004-10-26 07:06:28 51°16.652 2°52.862 11.7 337 11.5 101140 75
2004-10-26 07:06:32 51°16.666 2°52.854 11.8 335 11.6 101120 75
2004-10-26 07:06:38 51°16.686 2°52.841 11.8 336 11.6 101120 75
2004-10-26 07:06:43 51°16.703 2°52.831 11.8 338 11.6 101130 75
2004-10-26 07:06:47 51°16.716 2°52.822 11.4 336 11.6 101130 75
2004-10-26 07:06:53 51°16.737 2°52.81 10.9 337 11.6 101120 75
2004-10-26 07:06:58 51°16.754 2°52.8 12.1 336 11.6 101120 75
2004-10-26 07:07:08 51°16.787 2°52.779 11.6 334 11.6 101120 75
2004-10-26 07:07:12 51°16.801 2°52.771 10.6 336 11.6 101130 75
2004-10-26 07:07:18 51°16.821 2°52.759 12.4 339 11.6 101130 75
2004-10-26 07:07:23 51°16.837 2°52.748 11.4 340 11.6 101120 75
2004-10-26 07:07:28 51°16.854 2°52.737 12.2 336 11.6 101120 75
2004-10-26 07:07:31 51°16.863 2°52.731 11.3 336 11.6 101130 74
2004-10-26 07:07:38 51°16.887 2°52.716 11.7 335 11.6 101130 74
2004-10-26 07:07:42 51°16.9 2°52.707 13.1 332 11.7 101130 75
2004-10-26 07:07:48 51°16.92 2°52.694 12 330 11.7 101130 75
2004-10-26 07:07:52 51°16.933 2°52.685 12.2 330 11.7 101120 74
2004-10-26 07:07:58 51°16.953 2°52.672 11.3 331 11.7 101120 74
2004-10-26 07:08:03 51°16.97 2°52.661 12 332 11.7 101120 75
2004-10-26 07:08:08 51°16.986 2°52.65 12.4 332 11.7 101120 75
2004-10-26 07:08:12 51°17 2°52.641 12.4 336 11.7 101120 74
2004-10-26 07:08:18 51°17.02 2°52.628 12.6 335 11.7 101120 74
2004-10-26 07:08:23 51°17.037 2°52.616 11.5 333 11.7 101140 74
2004-10-26 07:08:27 51°17.05 2°52.608 11.4 331 11.7 101140 74
2004-10-26 07:08:31 51°17.063 2°52.599 12.1 329 11.7 101120 74
2004-10-26 07:08:38 51°17.087 2°52.583 11.1 335 11.7 101120 74
2004-10-26 07:08:43 51°17.103 2°52.573 11.9 334 11.7 101120 73
2004-10-26 07:08:48 51°17.12 2°52.562 10.6 332 11.7 101120 73
2004-10-26 07:08:52 51°17.133 2°52.554 11.2 334 11.7 101120 73
2004-10-26 07:08:55 51°17.143 2°52.547 10.8 332 11.7 101120 73
2004-10-26 07:09:03 51°17.17 2°52.53 10.1 334 11.7 101120 73
2004-10-26 07:09:08 51°17.187 2°52.519 11.1 331 11.7 101120 73
2004-10-26 07:09:12 51°17.2 2°52.51 11.4 333 11.7 101130 73
2004-10-26 07:09:16 51°17.214 2°52.501 12 334 11.7 101130 73
2004-10-26 07:09:22 51°17.234 2°52.488 11.3 333 11.7 101120 73
2004-10-26 07:09:28 51°17.254 2°52.475 12 337 11.7 101120 73
2004-10-26 07:09:32 51°17.267 2°52.466 12.5 333 11.7 101120 73
2004-10-26 07:09:35 51°17.277 2°52.46 11.8 333 11.7 101120 73
2004-10-26 07:09:42 51°17.301 2°52.445 11 333 11.7 101120 73
2004-10-26 07:09:48 51°17.321 2°52.431 11.4 331 11.7 101120 73
2004-10-26 07:09:51 51°17.331 2°52.425 10.8 336 11.8 101120 73
2004-10-26 07:09:58 51°17.354 2°52.409 10.5 340 11.8 101120 73
2004-10-26 07:10:03 51°17.371 2°52.397 10.9 344 11.8 101120 73
2004-10-26 07:10:08 51°17.388 2°52.386 12.3 336 11.8 101120 73
2004-10-26 07:10:12 51°17.401 2°52.377 11.7 336 11.7 101120 73
2004-10-26 07:10:16 51°17.414 2°52.367 11.6 337 11.7 101120 73
2004-10-26 07:10:23 51°17.438 2°52.351 11 336 11.8 101120 73
2004-10-26 07:10:26 51°17.448 2°52.345 11.5 339 11.8 101120 73
2004-10-26 07:10:32 51°17.468 2°52.332 11.7 332 11.8 101120 73
2004-10-26 07:10:38 51°17.488 2°52.32 10.9 332 11.8 101120 73
2004-10-26 07:10:43 51°17.505 2°52.314 10.5 326 11.8 101120 72
2004-10-26 07:10:48 51°17.523 2°52.31 10 329 11.8 101120 72
2004-10-26 07:10:52 51°17.537 2°52.308 11 323 11.8 101120 72
2004-10-26 07:10:56 51°17.551 2°52.306 10.4 327 11.8 101120 72
2004-10-26 07:11:02 51°17.572 2°52.305 10.5 325 11.8 101120 72
2004-10-26 07:11:08 51°17.593 2°52.304 10.4 324 11.8 101120 72
2004-10-26 07:11:12 51°17.607 2°52.304 10.1 322 11.8 101120 72
2004-10-26 07:11:18 51°17.628 2°52.304 9.2 328 11.8 101120 72
2004-10-26 07:11:23 51°17.646 2°52.303 9.8 328 11.8 101120 72
2004-10-26 07:11:28 51°17.663 2°52.303 10.1 328 11.8 101120 72
2004-10-26 07:11:32 51°17.677 2°52.303 9.9 330 11.8 101120 72
2004-10-26 07:11:38 51°17.699 2°52.302 10.7 331 11.8 101120 72
2004-10-26 07:11:42 51°17.713 2°52.301 11.3 330 11.8 101120 72
2004-10-26 07:11:47 51°17.73 2°52.3 10.7 332 11.8 101120 72
2004-10-26 07:11:52 51°17.748 2°52.299 11.3 329 11.8 101130 73
2004-10-26 07:11:56 51°17.762 2°52.299 10.9 326 11.8 101130 73
2004-10-26 07:12:02 51°17.783 2°52.298 10.5 325 11.8 101120 73
2004-10-26 07:12:08 51°17.805 2°52.297 9.8 330 11.8 101120 73
2004-10-26 07:12:12 51°17.819 2°52.298 9.7 327 11.8 101120 73
2004-10-26 07:12:16 51°17.833 2°52.297 10.6 326 11.8 101120 73
2004-10-26 07:12:23 51°17.857 2°52.297 9.8 323 11.8 101120 72
2004-10-26 07:12:28 51°17.875 2°52.299 9.1 327 11.8 101120 72
2004-10-26 07:12:32 51°17.889 2°52.302 9.8 324 11.8 101120 72
2004-10-26 07:12:38 51°17.91 2°52.306 8.6 325 11.8 101120 72
2004-10-26 07:12:43 51°17.927 2°52.31 9.7 329 11.8 101120 71
2004-10-26 07:12:48 51°17.945 2°52.314 9.6 325 11.8 101120 71
2004-10-26 07:12:53 51°17.962 2°52.32 9.9 320 11.8 101120 71
2004-10-26 07:12:58 51°17.979 2°52.325 10.3 317 11.8 101120 71
2004-10-26 07:13:02 51°17.993 2°52.329 10.2 322 11.8 101130 71
2004-10-26 07:13:08 51°18.014 2°52.334 10.5 321 11.8 101130 71
2004-10-26 07:13:12 51°18.028 2°52.338 10.9 318 11.8 101130 72
2004-10-26 07:13:16 51°18.042 2°52.342 9.4 319 11.8 101130 72
2004-10-26 07:13:23 51°18.066 2°52.35 9.7 318 11.8 101120 72
2004-10-26 07:13:26 51°18.077 2°52.352 8.8 317 11.8 101120 72
2004-10-26 07:13:30 51°18.091 2°52.356 8.7 323 11.8 101120 71
2004-10-26 07:13:40 51°18.126 2°52.365 9.7 329 11.8 101120 71
2004-10-26 07:13:45 51°18.144 2°52.369 10.3 324 11.8 101120 71
2004-10-26 07:13:50 51°18.162 2°52.374 9.4 323 11.8 101120 71
2004-10-26 07:13:55 51°18.179 2°52.378 9.7 322 11.8 101150 71
2004-10-26 07:14:00 51°18.197 2°52.383 9.3 322 11.8 101150 71
2004-10-26 07:14:04 51°18.211 2°52.386 9.6 323 11.8 101130 72
2004-10-26 07:14:10 51°18.232 2°52.392 9.4 324 11.8 101130 72
2004-10-26 07:14:15 51°18.249 2°52.396 9.3 322 11.8 101130 71
2004-10-26 07:14:20 51°18.267 2°52.4 8.6 321 11.8 101130 71
2004-10-26 07:14:24 51°18.281 2°52.404 9.5 321 11.8 101130 70
2004-10-26 07:14:30 51°18.302 2°52.409 9.5 318 11.8 101130 70
2004-10-26 07:14:40 51°18.337 2°52.418 8.6 318 11.8 101130 70
2004-10-26 07:14:45 51°18.354 2°52.422 9.2 322 11.8 101130 70
2004-10-26 07:14:50 51°18.372 2°52.427 8.6 320 11.8 101130 70
2004-10-26 07:14:55 51°18.39 2°52.431 8.1 327 11.8 101130 69
2004-10-26 07:15:00 51°18.407 2°52.435 7.9 329 11.8 101130 69
2004-10-26 07:15:04 51°18.421 2°52.439 9.7 325 11.8 101130 69
2004-10-26 07:15:10 51°18.442 2°52.443 9.2 325 11.8 101130 69
2004-10-26 07:15:15 51°18.46 2°52.448 9 326 11.8 101130 69
2004-10-26 07:15:20 51°18.477 2°52.452 9.6 321 11.8 101130 69
2004-10-26 07:15:25 51°18.495 2°52.456 9.6 321 11.8 101130 69
2004-10-26 07:15:30 51°18.513 2°52.46 9.1 328 11.8 101130 69
2004-10-26 07:15:35 51°18.53 2°52.464 9.5 324 11.8 101130 69
2004-10-26 07:15:39 51°18.545 2°52.468 9.1 318 11.8 101130 69
2004-10-26 07:15:43 51°18.559 2°52.472 9.3 317 11.8 101130 69
2004-10-26 07:15:50 51°18.583 2°52.481 8.6 316 11.8 101130 69
2004-10-26 07:15:54 51°18.597 2°52.485 8 318 11.8 101130 69
2004-10-26 07:15:59 51°18.614 2°52.494 9.4 316 11.8 101130 69
2004-10-26 07:16:04 51°18.631 2°52.501 8 227 11.8 101130 68
2004-10-26 07:16:10 51°18.651 2°52.512 9 40 11.8 101130 68
2004-10-26 07:16:15 51°18.668 2°52.52 9 317 11.8 101140 69
2004-10-26 07:16:19 51°18.681 2°52.527 8.8 315 11.8 101140 69
2004-10-26 07:16:24 51°18.698 2°52.535 8.4 317 11.8 101130 69
2004-10-26 07:16:30 51°18.718 2°52.545 7.6 315 11.8 101130 69
2004-10-26 07:16:34 51°18.732 2°52.552 8.5 320 11.8 101140 69
2004-10-26 07:16:38 51°18.745 2°52.559 9.5 42 11.8 101140 69
2004-10-26 07:16:43 51°18.762 2°52.566 8.5 316 11.8 101130 69
2004-10-26 07:16:50 51°18.785 2°52.578 8.3 321 11.8 101130 69
2004-10-26 07:16:55 51°18.802 2°52.586 8.2 42 11.8 101140 69
2004-10-26 07:16:59 51°18.815 2°52.593 8.2 316 11.8 101140 69
2004-10-26 07:17:04 51°18.832 2°52.601 7.7 316 11.9 101140 70
2004-10-26 07:17:10 51°18.852 2°52.612 7.4 316 11.9 101140 70
2004-10-26 07:17:15 51°18.868 2°52.622 7.8 44 11.9 101130 70
2004-10-26 07:17:20 51°18.885 2°52.632 7.9 42 11.9 101130 70
2004-10-26 07:17:24 51°18.897 2°52.641 7.2 313 11.9 101140 70
2004-10-26 07:17:30 51°18.917 2°52.654 6.9 320 11.9 101140 70
2004-10-26 07:17:35 51°18.933 2°52.665 7.8 320 11.9 101140 70
2004-10-26 07:17:40 51°18.949 2°52.676 7.7 314 11.9 101140 70
2004-10-26 07:17:44 51°18.962 2°52.684 7.4 317 11.9 101140 70
2004-10-26 07:17:49 51°18.978 2°52.695 8.1 320 11.9 101140 70
2004-10-26 07:17:55 51°18.998 2°52.708 7.7 228 11.9 101160 70
2004-10-26 07:18:00 51°19.014 2°52.719 7.9 227 11.9 101160 70
2004-10-26 07:18:04 51°19.027 2°52.728 8.2 313 11.9 101150 70
2004-10-26 07:18:09 51°19.043 2°52.739 7.6 227 11.9 101150 70
2004-10-26 07:18:15 51°19.063 2°52.752 7.5 43 11.9 101150 70
2004-10-26 07:18:19 51°19.076 2°52.761 7.6 42 11.9 101150 70
2004-10-26 07:18:24 51°19.092 2°52.771 7.5 228 11.9 101150 70
2004-10-26 07:18:30 51°19.112 2°52.784 7.4 43 11.9 101150 70
2004-10-26 07:18:35 51°19.128 2°52.794 8.6 314 11.9 101150 70
2004-10-26 07:18:40 51°19.145 2°52.806 7.6 322 11.9 101150 70
2004-10-26 07:18:43 51°19.154 2°52.812 8.1 318 11.9 101150 70
2004-10-26 07:18:50 51°19.177 2°52.828 8.1 230 11.9 101150 70
2004-10-26 07:18:54 51°19.19 2°52.836 8.5 321 11.9 101150 70
2004-10-26 07:18:59 51°19.206 2°52.847 8.2 315 11.9 101150 70
2004-10-26 07:19:04 51°19.223 2°52.857 7.6 318 11.9 101150 70
2004-10-26 07:19:10 51°19.242 2°52.87 7.5 230 11.9 101150 70
2004-10-26 07:19:15 51°19.258 2°52.882 7.7 320 11.9 101150 70
2004-10-26 07:19:20 51°19.274 2°52.893 8.5 43 11.9 101150 70
2004-10-26 07:19:23 51°19.284 2°52.9 8.3 319 11.9 101150 70
2004-10-26 07:19:30 51°19.307 2°52.915 7.5 318 11.9 101150 70
2004-10-26 07:19:35 51°19.323 2°52.927 7.3 318 11.9 101140 71
2004-10-26 07:19:40 51°19.34 2°52.937 7.2 229 11.9 101140 71
2004-10-26 07:19:42 51°19.347 2°52.941 7.5 43 11.9 101150 71
2004-10-26 07:19:50 51°19.373 2°52.959 8 227 11.9 101150 71
2004-10-26 07:19:54 51°19.387 2°52.968 8.3 321 11.9 101150 71
2004-10-26 07:20:00 51°19.406 2°52.981 8.6 320 11.9 101150 71
2004-10-26 07:20:04 51°19.419 2°52.99 8.5 320 11.9 101150 71
2004-10-26 07:20:10 51°19.44 2°53.003 8.9 317 11.9 101150 71
2004-10-26 07:20:15 51°19.456 2°53.014 8.2 316 12 101150 71
2004-10-26 07:20:20 51°19.473 2°53.025 8.7 315 12 101150 71
2004-10-26 07:20:24 51°19.486 2°53.034 8.3 324 12 101150 71
2004-10-26 07:20:30 51°19.506 2°53.047 9 42 12 101150 71
2004-10-26 07:20:35 51°19.522 2°53.059 9 319 12 101140 71
2004-10-26 07:20:40 51°19.539 2°53.07 7.9 43 12 101140 71
2004-10-26 07:20:44 51°19.552 2°53.079 7.7 321 12 101140 71
2004-10-26 07:20:49 51°19.569 2°53.09 8.3 40 12 101140 71
2004-10-26 07:20:55 51°19.588 2°53.104 8 314 11.9 101150 70
2004-10-26 07:20:58 51°19.598 2°53.11 7.4 42 11.9 101150 70
2004-10-26 07:21:03 51°19.615 2°53.122 8.3 229 11.9 101150 70
2004-10-26 07:21:10 51°19.638 2°53.137 8.2 315 11.9 101150 70
2004-10-26 07:21:14 51°19.651 2°53.146 8.5 227 11.9 101140 70
2004-10-26 07:21:19 51°19.668 2°53.157 8.2 320 11.9 101140 70
2004-10-26 07:21:24 51°19.684 2°53.168 7.9 319 11.9 101140 70
2004-10-26 07:21:30 51°19.704 2°53.182 9.1 317 11.9 101140 70
2004-10-26 07:21:35 51°19.72 2°53.192 8.4 320 11.9 101140 70
2004-10-26 07:21:40 51°19.737 2°53.202 7.9 316 11.9 101140 70
2004-10-26 07:21:45 51°19.753 2°53.213 8.4 226 11.9 101150 70
2004-10-26 07:21:50 51°19.769 2°53.224 8.2 316 11.9 101150 70
2004-10-26 07:21:55 51°19.785 2°53.237 9.5 314 11.9 101150 70
2004-10-26 07:22:00 51°19.801 2°53.248 9 312 11.9 101150 70
2004-10-26 07:22:04 51°19.814 2°53.258 8.9 315 12 101150 70
2004-10-26 07:22:10 51°19.833 2°53.272 8.7 312 12 101150 70
2004-10-26 07:22:14 51°19.846 2°53.282 7.5 317 12 101140 70
2004-10-26 07:22:20 51°19.865 2°53.298 7.6 313 12 101140 70
2004-10-26 07:22:24 51°19.878 2°53.307 8 314 11.9 101150 69
2004-10-26 07:22:30 51°19.896 2°53.323 8.3 312 11.9 101150 69
2004-10-26 07:22:40 51°19.929 2°53.346 8.6 314 11.9 101140 69
2004-10-26 07:22:45 51°19.945 2°53.358 7.8 312 11.9 101150 69
2004-10-26 07:22:50 51°19.961 2°53.37 7.5 314 11.9 101150 69
2004-10-26 07:22:55 51°19.977 2°53.381 8.2 313 11.9 101150 68
2004-10-26 07:23:00 51°19.993 2°53.394 7.7 313 11.9 101150 68
2004-10-26 07:23:04 51°20.006 2°53.403 8.3 313 11.9 101170 68
2004-10-26 07:23:10 51°20.025 2°53.418 7.5 315 11.9 101170 68
2004-10-26 07:23:14 51°20.038 2°53.427 7.8 312 11.9 101150 68
2004-10-26 07:23:20 51°20.057 2°53.442 8.3 318 11.9 101150 68
2004-10-26 07:23:24 51°20.07 2°53.451 7.7 319 11.9 101150 68
2004-10-26 07:23:30 51°20.089 2°53.466 7.7 320 11.9 101150 68
2004-10-26 07:23:39 51°20.118 2°53.487 8.3 319 11.9 101140 68
2004-10-26 07:23:43 51°20.13 2°53.497 8.8 320 11.9 101150 68
2004-10-26 07:23:49 51°20.15 2°53.51 8.3 313 11.9 101150 68
2004-10-26 07:23:55 51°20.169 2°53.524 7.9 312 12 101150 69
2004-10-26 07:24:00 51°20.185 2°53.536 8.1 229 12 101150 69
2004-10-26 07:24:04 51°20.197 2°53.545 8.2 44 12 101150 69
2004-10-26 07:24:10 51°20.217 2°53.559 8.1 230 12 101150 69
2004-10-26 07:24:15 51°20.233 2°53.571 8.1 315 12 101140 70
2004-10-26 07:24:19 51°20.245 2°53.58 7.8 42 12 101140 70
2004-10-26 07:24:23 51°20.258 2°53.59 7.7 315 12 101140 69
2004-10-26 07:24:30 51°20.28 2°53.606 7.9 313 12 101140 69
2004-10-26 07:24:34 51°20.293 2°53.616 8.1 314 12 101150 69
2004-10-26 07:24:40 51°20.312 2°53.63 7.1 228 12 101150 69
2004-10-26 07:24:44 51°20.325 2°53.64 7.4 310 12 101140 70
2004-10-26 07:24:50 51°20.344 2°53.654 7.2 307 12 101140 70
2004-10-26 07:24:54 51°20.356 2°53.664 7.8 315 12 101140 70
2004-10-26 07:25:00 51°20.375 2°53.678 8.7 316 12 101140 70
2004-10-26 07:25:03 51°20.385 2°53.685 9.4 41 12 101140 70
2004-10-26 07:25:10 51°20.407 2°53.701 8.1 313 12 101140 70
2004-10-26 07:25:19 51°20.436 2°53.723 7.6 308 12 101140 70
2004-10-26 07:25:23 51°20.448 2°53.733 7.4 309 12 101140 70
2004-10-26 07:25:30 51°20.47 2°53.75 7.7 315 12 101140 70
2004-10-26 07:25:35 51°20.486 2°53.762 8.3 317 12 101140 70
2004-10-26 07:25:38 51°20.496 2°53.769 8.7 320 12 101140 70
2004-10-26 07:25:42 51°20.509 2°53.778 10.5 317 12 101140 70
2004-10-26 07:25:51 51°20.537 2°53.799 9.4 40 12 101140 70
2004-10-26 07:25:56 51°20.553 2°53.811 9.3 42 12.1 101140 70
2004-10-26 07:26:08 51°20.592 2°53.84 9 44 12.1 101140 70
2004-10-26 07:26:13 51°20.608 2°53.852 9.2 318 12 101140 70
2004-10-26 07:26:18 51°20.624 2°53.864 8.9 42 12 101140 70
2004-10-26 07:26:23 51°20.64 2°53.876 8.4 318 12 101140 69
2004-10-26 07:26:28 51°20.656 2°53.888 9.2 317 12 101140 69
2004-10-26 07:26:31 51°20.666 2°53.894 8.1 316 12 101140 69
2004-10-26 07:26:38 51°20.688 2°53.91 7.7 314 12 101140 69
2004-10-26 07:26:42 51°20.701 2°53.92 8.2 317 12 101140 68
2004-10-26 07:26:48 51°20.721 2°53.934 8.6 315 12 101140 68
2004-10-26 07:26:52 51°20.733 2°53.943 8.2 313 12 101140 68
2004-10-26 07:26:55 51°20.743 2°53.95 7.4 226 12 101140 68
2004-10-26 07:27:02 51°20.765 2°53.967 8.6 310 12 101140 68
2004-10-26 07:27:08 51°20.784 2°53.981 8 312 12 101140 68
2004-10-26 07:27:12 51°20.797 2°53.99 8.3 314 12 101140 68
2004-10-26 07:27:18 51°20.817 2°54.004 8.1 316 12 101140 68
2004-10-26 07:27:23 51°20.832 2°54.016 8.8 315 12.1 101140 68
2004-10-26 07:27:27 51°20.845 2°54.025 8.8 312 12.1 101140 68
2004-10-26 07:27:32 51°20.861 2°54.037 7.5 229 12.1 101140 68
2004-10-26 07:27:38 51°20.88 2°54.051 7.7 314 12.1 101140 68
2004-10-26 07:27:43 51°20.896 2°54.064 9.1 228 12.1 101140 68
2004-10-26 07:27:48 51°20.912 2°54.076 8.1 44 12.1 101140 68
2004-10-26 07:27:51 51°20.922 2°54.083 8.5 316 12 101140 67
2004-10-26 07:27:58 51°20.945 2°54.1 7.8 313 12 101140 67
2004-10-26 07:28:03 51°20.961 2°54.111 8.1 314 12 101140 67
2004-10-26 07:28:07 51°20.974 2°54.121 8.2 314 12 101140 67
2004-10-26 07:28:13 51°20.994 2°54.134 7.8 228 12 101150 67
2004-10-26 07:28:18 51°21.01 2°54.147 7.7 43 12 101150 67
2004-10-26 07:28:23 51°21.025 2°54.161 7.3 315 12.1 101140 67
2004-10-26 07:28:28 51°21.041 2°54.174 7.4 317 12.1 101140 67
2004-10-26 07:28:29 51°21.044 2°54.177 7.3 318 12.1 101150 67
2004-10-26 07:28:38 51°21.071 2°54.202 8.4 322 12.1 101150 67
2004-10-26 07:28:42 51°21.084 2°54.213 7.9 327 12.1 101150 68
2004-10-26 07:28:48 51°21.102 2°54.23 8.2 318 12.1 101150 68
2004-10-26 07:28:51 51°21.112 2°54.238 7.2 320 12.2 101150 68
2004-10-26 07:28:58 51°21.134 2°54.257 8.3 318 12.2 101150 68
2004-10-26 07:29:08 51°21.165 2°54.285 7.2 322 12.2 101150 68
2004-10-26 07:29:12 51°21.178 2°54.296 7 318 12.1 101150 68
2004-10-26 07:29:18 51°21.197 2°54.312 6.8 324 12.1 101150 68
2004-10-26 07:29:23 51°21.212 2°54.327 6.6 229 12.1 101150 68
2004-10-26 07:29:27 51°21.224 2°54.338 5.6 42 12.1 101150 68
2004-10-26 07:29:32 51°21.238 2°54.355 6.5 229 12.1 101150 67
2004-10-26 07:29:38 51°21.256 2°54.373 6.5 315 12.1 101150 67
2004-10-26 07:29:43 51°21.271 2°54.389 7.3 311 12.1 101150 67
2004-10-26 07:29:48 51°21.286 2°54.405 6.9 319 12.1 101150 67
2004-10-26 07:29:51 51°21.295 2°54.415 6.9 315 12.1 101150 67
2004-10-26 07:29:58 51°21.316 2°54.437 6.1 313 12.1 101150 67
2004-10-26 07:30:08 51°21.346 2°54.466 5.4 318 12.1 101150 67
2004-10-26 07:30:12 51°21.357 2°54.48 6.2 318 12.1 101150 68
2004-10-26 07:30:18 51°21.375 2°54.498 6.8 229 12.1 101150 68
2004-10-26 07:30:23 51°21.39 2°54.514 6.5 313 12.2 101150 68
2004-10-26 07:30:27 51°21.402 2°54.526 6 311 12.2 101150 68
2004-10-26 07:30:31 51°21.414 2°54.539 7 317 12.2 101150 68
2004-10-26 07:30:38 51°21.435 2°54.56 6.6 316 12.2 101150 68
2004-10-26 07:30:43 51°21.449 2°54.576 6.9 322 12.2 101150 68
2004-10-26 07:30:47 51°21.461 2°54.588 7.4 227 12.2 101150 68
2004-10-26 07:30:53 51°21.479 2°54.607 7.4 316 12.2 101150 68
2004-10-26 07:30:58 51°21.494 2°54.623 7.8 311 12.2 101150 68
2004-10-26 07:31:02 51°21.506 2°54.635 7.3 320 12.2 101150 69
2004-10-26 07:31:08 51°21.524 2°54.655 7.8 318 12.2 101150 69
2004-10-26 07:31:12 51°21.536 2°54.667 8.5 227 12.2 101150 69
2004-10-26 07:31:18 51°21.554 2°54.686 8.1 318 12.2 101150 69
2004-10-26 07:31:23 51°21.569 2°54.701 8.2 312 12.2 101150 69
2004-10-26 07:31:27 51°21.581 2°54.714 7.2 310 12.2 101150 69
2004-10-26 07:31:31 51°21.593 2°54.727 7.7 309 12.2 101150 69
2004-10-26 07:31:38 51°21.614 2°54.748 7.8 309 12.2 101150 69
2004-10-26 07:31:43 51°21.629 2°54.763 6.3 314 12.2 101150 69
2004-10-26 07:31:47 51°21.64 2°54.777 7.9 312 12.2 101150 69
2004-10-26 07:31:52 51°21.656 2°54.79 6.3 230 12.2 101150 68
2004-10-26 07:31:58 51°21.673 2°54.81 7.7 306 12.2 101150 68
2004-10-26 07:32:03 51°21.688 2°54.824 6.8 306 12.2 101150 68
2004-10-26 07:32:08 51°21.703 2°54.841 7.2 310 12.2 101150 68
2004-10-26 07:32:12 51°21.715 2°54.852 6.7 304 12.2 101150 68
2004-10-26 07:32:18 51°21.733 2°54.871 7.4 307 12.2 101150 68
2004-10-26 07:32:23 51°21.748 2°54.886 6.8 304 12.2 101150 68
2004-10-26 07:32:28 51°21.762 2°54.901 7.4 313 12.2 101150 68
2004-10-26 07:32:31 51°21.771 2°54.91 6.7 304 12.2 101160 68
2004-10-26 07:32:38 51°21.792 2°54.932 7.3 308 12.2 101160 68
2004-10-26 07:32:42 51°21.803 2°54.945 6.2 309 12.2 101150 67
2004-10-26 07:32:48 51°21.821 2°54.963 6.1   12.2 101150 67
2004-10-26 07:32:52 51°21.834 2°54.975 6.4 305 12.2 101160 67
2004-10-26 07:32:58 51°21.852 2°54.991 6.5 320 12.2 101160 67
2004-10-26 07:33:03 51°21.867 2°55.004 7.1 313 12.2 101150 67
2004-10-26 07:33:08 51°21.883 2°55.018 7.7 310 12.2 101150 67
2004-10-26 07:33:13 51°21.899 2°55.032 7 310 12.2 101160 66
2004-10-26 07:33:18 51°21.915 2°55.044 6.7 311 12.2 101160 66
2004-10-26 07:33:22 51°21.927 2°55.055 7.4 307 12.2 101150 66
2004-10-26 07:33:27 51°21.943 2°55.068 7.7 306 12.2 101150 66
2004-10-26 07:33:31 51°21.956 2°55.078 7.1 313 12.2 101150 66
2004-10-26 07:33:38 51°21.978 2°55.097 7.3 309 12.2 101150 66
2004-10-26 07:33:43 51°21.994 2°55.109 6.2 310 12.2 101150 66
2004-10-26 07:33:48 51°22.01 2°55.122 6.9 311 12.2 101150 66
2004-10-26 07:33:49 51°22.013 2°55.125 7.4 310 12.2 101150 65
2004-10-26 07:33:58 51°22.042 2°55.147 6.3 310 12.2 101150 65
2004-10-26 07:34:02 51°22.055 2°55.157 7.2 305 12.2 101150 65
2004-10-26 07:34:08 51°22.074 2°55.172 6.1 308 12.2 101150 65
2004-10-26 07:34:11 51°22.084 2°55.181 6.9 228 12.1 101150 64
2004-10-26 07:34:18 51°22.107 2°55.198 7.1 312 12.1 101150 64
2004-10-26 07:34:28 51°22.139 2°55.224 6.9 302 12.1 101150 64
2004-10-26 07:34:33 51°22.155 2°55.237 7.1 307 12.2 101160 64
2004-10-26 07:34:38 51°22.172 2°55.25 7.6 306 12.2 101160 64
2004-10-26 07:34:43 51°22.188 2°55.262 6.9 308 12.2 101160 63
2004-10-26 07:34:47 51°22.201 2°55.271 8.2 313 12.2 101160 63
2004-10-26 07:34:51 51°22.214 2°55.281 7.1 309 12.2 101160 63
2004-10-26 07:34:58 51°22.236 2°55.299 7.2 307 12.2 101160 63
2004-10-26 07:35:02 51°22.249 2°55.309 7.3 305 12.2 101150 63
2004-10-26 07:35:07 51°22.265 2°55.322 6.7 309 12.2 101150 63
2004-10-26 07:35:12 51°22.281 2°55.335 7.3 311 12.2 101150 64
2004-10-26 07:35:18 51°22.3 2°55.351 6.9 309 12.2 101150 64
2004-10-26 07:35:23 51°22.317 2°55.363 8.5 312 12.2 101160 63
2004-10-26 07:35:27 51°22.33 2°55.374 8.7 310 12.2 101160 63
2004-10-26 07:35:32 51°22.346 2°55.386 8.6 311 12.2 101160 63
2004-10-26 07:35:38 51°22.365 2°55.401 7.7 311 12.2 101160 63
2004-10-26 07:35:47 51°22.394 2°55.424 7.8 313 12.2 101160 63
2004-10-26 07:35:51 51°22.407 2°55.433 7.4 311 12.2 101160 64
2004-10-26 07:35:56 51°22.423 2°55.447 8.1 307 12.2 101160 64
2004-10-26 07:36:03 51°22.446 2°55.464 7.6 311 12.3 101160 65
2004-10-26 07:36:08 51°22.461 2°55.478 7.4 306 12.3 101160 65
2004-10-26 07:36:11 51°22.471 2°55.486 7.9 303 12.3 101150 65
2004-10-26 07:36:18 51°22.493 2°55.503 8.1 303 12.3 101150 65
2004-10-26 07:36:22 51°22.506 2°55.513 6.7 304 12.2 101150 65
2004-10-26 07:36:28 51°22.526 2°55.528 7.4 307 12.2 101150 65
2004-10-26 07:36:33 51°22.541 2°55.541 7.5 309 12.3 101150 65
2004-10-26 07:36:38 51°22.557 2°55.554 8 323 12.3 101150 65
2004-10-26 07:36:42 51°22.57 2°55.564 7.8 320 12.3 101150 66
2004-10-26 07:36:48 51°22.589 2°55.58 8 317 12.3 101150 66
2004-10-26 07:36:52 51°22.602 2°55.59 7.8 42 12.3 101160 66
2004-10-26 07:36:58 51°22.621 2°55.605 8.2 315 12.3 101160 66
2004-10-26 07:37:02 51°22.634 2°55.615 8.9 322 12.3 101160 67
2004-10-26 07:37:08 51°22.654 2°55.629 9.6 319 12.3 101160 67
2004-10-26 07:37:12 51°22.667 2°55.638 8.6 323 12.3 101150 67
2004-10-26 07:37:18 51°22.686 2°55.652 8.3 318 12.3 101150 67
2004-10-26 07:37:22 51°22.699 2°55.661 9.5 320 12.3 101150 67
2004-10-26 07:37:27 51°22.716 2°55.672 9.7 316 12.3 101150 67
2004-10-26 07:37:31 51°22.729 2°55.681 9.3 318 12.3 101150 68
2004-10-26 07:37:38 51°22.752 2°55.696 9.3 319 12.3 101150 68
2004-10-26 07:37:43 51°22.768 2°55.707 8.6 323 12.3 101160 67
2004-10-26 07:37:48 51°22.785 2°55.718 8.8 44 12.3 101160 67
2004-10-26 07:37:53 51°22.801 2°55.729 7.7 316 12.3 101190 67
2004-10-26 07:37:58 51°22.817 2°55.741 8.9 315 12.3 101190 67
2004-10-26 07:38:03 51°22.834 2°55.752 8 43 12.3 101190 67
2004-10-26 07:38:08 51°22.85 2°55.764 8.2 317 12.3 101190 67
2004-10-26 07:38:12 51°22.863 2°55.772 7.8 318 12.3 101200 67
2004-10-26 07:38:18 51°22.882 2°55.787 9.1 316 12.3 101200 67
2004-10-26 07:38:23 51°22.899 2°55.797 9.1 314 12.2 101190 67
2004-10-26 07:38:27 51°22.912 2°55.807 8.8 229 12.2 101190 67
2004-10-26 07:38:31 51°22.925 2°55.815 9.3 316 12.2 101200 67
2004-10-26 07:38:38 51°22.948 2°55.831 8.9 320 12.2 101200 67
2004-10-26 07:38:42 51°22.962 2°55.839 9.3 316 12.2 101190 67
2004-10-26 07:38:48 51°22.981 2°55.853 8.7 317 12.2 101190 67
2004-10-26 07:38:51 51°22.991 2°55.859 8.5 317 12.2 101160 67
2004-10-26 07:38:58 51°23.013 2°55.875 8.4 44 12.2 101160 67
2004-10-26 07:39:02 51°23.026 2°55.884 8.3 318 12.2 101160 67
2004-10-26 07:39:07 51°23.042 2°55.896 8.1 320 12.2 101160 67
2004-10-26 07:39:11 51°23.055 2°55.905 8 322 12.2 101150 67
2004-10-26 07:39:18 51°23.078 2°55.922 7.9 316 12.2 101150 67
2004-10-26 07:39:23 51°23.094 2°55.934 8.1 316 12.2 101160 67
2004-10-26 07:39:26 51°23.103 2°55.941 7.1 227 12.2 101160 67
2004-10-26 07:39:32 51°23.123 2°55.956 6.9 228 12.2 101160 67
2004-10-26 07:39:38 51°23.142 2°55.968 7.4 320 12.2 101160 67
2004-10-26 07:39:43 51°23.158 2°55.981 7.8 43 12.2 101150 66
2004-10-26 07:39:48 51°23.174 2°55.991 7.2 319 12.2 101150 66
2004-10-26 07:39:53 51°23.19 2°56.004 8 43 12.2 101160 66
2004-10-26 07:39:58 51°23.206 2°56.016 9.1 316 12.2 101160 66
2004-10-26 07:40:03 51°23.222 2°56.027 7.9 314 12.2 101160 66
2004-10-26 07:40:08 51°23.238 2°56.039 7.7 229 12.2 101160 66
2004-10-26 07:40:11 51°23.248 2°56.046 7.4 316 12.2 101160 66
2004-10-26 07:40:18 51°23.27 2°56.062 7.4 43 12.2 101160 66
2004-10-26 07:40:22 51°23.283 2°56.071 7.7 315 12.2 101160 66
2004-10-26 07:40:27 51°23.299 2°56.083 8.1 320 12.2 101160 66
2004-10-26 07:40:30 51°23.309 2°56.09 7.9 320 12.1 101160 66
2004-10-26 07:40:38 51°23.335 2°56.11 8.4 41 12.1 101160 66
2004-10-26 07:40:42 51°23.348 2°56.119 8.2 314 12.1 101160 66
2004-10-26 07:40:48 51°23.368 2°56.132 7.6 316 12.1 101160 66
2004-10-26 07:40:52 51°23.381 2°56.141 7.9 321 12.1 101160 66
2004-10-26 07:40:58 51°23.401 2°56.154 8.6 229 12.1 101160 66
2004-10-26 07:41:02 51°23.414 2°56.163 8.4 318 12.1 101160 65
2004-10-26 07:41:08 51°23.434 2°56.177 7.6 42 12.1 101160 65
2004-10-26 07:41:12 51°23.447 2°56.186 7.2 317 12.1 101150 65
2004-10-26 07:41:18 51°23.466 2°56.201 7.1 315 12.1 101150 65
2004-10-26 07:41:22 51°23.479 2°56.209 7 313 12.1 101160 65
2004-10-26 07:41:28 51°23.498 2°56.223 7.7 314 12.1 101160 65
2004-10-26 07:41:31 51°23.508 2°56.23 7.5 316 12.1 101160 65
2004-10-26 07:41:38 51°23.531 2°56.246 7.6 314 12.1 101160 65
2004-10-26 07:41:43 51°23.547 2°56.258 8 316 12.1 101160 65
2004-10-26 07:41:47 51°23.561 2°56.267 8.3 228 12.1 101160 65
2004-10-26 07:41:51 51°23.574 2°56.275 7.1 315 12.1 101160 65
2004-10-26 07:41:58 51°23.596 2°56.292 9.6 317 12.1 101160 65
2004-10-26 07:42:03 51°23.613 2°56.302 9.4 318 12.1 101160 66
2004-10-26 07:42:07 51°23.625 2°56.312 7.7 315 12.1 101160 66
2004-10-26 07:42:12 51°23.642 2°56.323 7.9 229 12.2 101160 66
2004-10-26 07:42:17 51°23.657 2°56.336 8.7 312 12.2 101160 66
2004-10-26 07:42:23 51°23.677 2°56.348 7.6 313 12.2 101150 66
2004-10-26 07:42:27 51°23.69 2°56.358 7.3 319 12.2 101150 66
2004-10-26 07:42:31 51°23.703 2°56.367 7.4 321 12.2 101160 67
2004-10-26 07:42:38 51°23.726 2°56.383 9.4 316 12.2 101160 67
2004-10-26 07:42:43 51°23.742 2°56.394 8.9 43 12.2 101150 67
2004-10-26 07:42:48 51°23.759 2°56.405 8.3 326 12.2 101150 67
2004-10-26 07:42:51 51°23.768 2°56.413 9.5 226 12.2 101160 68
2004-10-26 07:42:58 51°23.791 2°56.429 9.2 226 12.2 101160 68
2004-10-26 07:43:03 51°23.807 2°56.44 8.7 42 12.2 101160 68
2004-10-26 07:43:08 51°23.823 2°56.451 8.4 228 12.2 101160 68
2004-10-26 07:43:11 51°23.833 2°56.457 7.8 44 12.2 101150 68
2004-10-26 07:43:18 51°23.856 2°56.473 8.1 42 12.2 101150 68
2004-10-26 07:43:22 51°23.869 2°56.481 7.8 316 12.2 101160 67
2004-10-26 07:43:28 51°23.888 2°56.494 8.9 227 12.2 101160 67
2004-10-26 07:43:30 51°23.894 2°56.498 8 316 12.2 101160 67
2004-10-26 07:43:38 51°23.921 2°56.515 9.3 228 12.2 101160 67
2004-10-26 07:43:43 51°23.937 2°56.525 8.2 324 12.2 101160 68
2004-10-26 07:43:48 51°23.954 2°56.535 9.4 317 12.2 101160 68
2004-10-26 07:43:52 51°23.967 2°56.543 9.6 316 12.2 101150 68
2004-10-26 07:43:58 51°23.986 2°56.555 8.5 316 12.2 101150 68
2004-10-26 07:44:02 51°24 2°56.563 8.4 318 12.2 101150 68
2004-10-26 07:44:08 51°24.019 2°56.575 9 316 12.2 101150 68
2004-10-26 07:44:12 51°24.032 2°56.583 8.7 319 12.2 101150 67
2004-10-26 07:44:18 51°24.051 2°56.596 8.4 318 12.2 101150 67
2004-10-26 07:44:22 51°24.064 2°56.604 8 321 12.2 101150 67
2004-10-26 07:44:28 51°24.083 2°56.618 9 318 12.2 101150 67
2004-10-26 07:44:32 51°24.096 2°56.626 8.7 319 12.2 101150 67
2004-10-26 07:44:38 51°24.116 2°56.639 9.7 40 12.2 101150 67
2004-10-26 07:44:43 51°24.133 2°56.648 9.7 43 12.2 101150 67
2004-10-26 07:44:47 51°24.145 2°56.657 10.1 38 12.2 101150 67
2004-10-26 07:44:51 51°24.158 2°56.664 9.6 319 12.2 101150 67
2004-10-26 07:44:56 51°24.174 2°56.674 9.4 319 12.2 101150 67
2004-10-26 07:45:03 51°24.197 2°56.689 10.2 317 12.2 101150 67
2004-10-26 07:45:08 51°24.213 2°56.699 9.5 43 12.2 101150 67
2004-10-26 07:45:12 51°24.226 2°56.707 9.7 315 12.2 101150 67
2004-10-26 07:45:18 51°24.246 2°56.718 8.8 316 12.2 101150 67
2004-10-26 07:45:23 51°24.262 2°56.729 9.4 318 12.2 101150 67
2004-10-26 07:45:27 51°24.275 2°56.736 8.2 317 12.2 101150 67
2004-10-26 07:45:33 51°24.294 2°56.75 8 317 12.2 101150 66
2004-10-26 07:45:38 51°24.311 2°56.76 8.6 318 12.2 101150 66
2004-10-26 07:45:43 51°24.327 2°56.771 9.4 317 12.1 101150 66
2004-10-26 07:45:48 51°24.343 2°56.781 9.4 319 12.1 101150 66
2004-10-26 07:45:52 51°24.356 2°56.789 9.6 43 12.1 101150 66
2004-10-26 07:45:58 51°24.376 2°56.8 9.3 316 12.1 101150 66
2004-10-26 07:46:02 51°24.389 2°56.808 8.9 319 12.1 101150 65
2004-10-26 07:46:08 51°24.409 2°56.82 9.4 317 12.1 101150 65
2004-10-26 07:46:12 51°24.422 2°56.827 8.8 321 12.1 101150 65
2004-10-26 07:46:18 51°24.441 2°56.839 8.7 41 12.1 101150 65
2004-10-26 07:46:22 51°24.454 2°56.846 9 226 12.1 101150 65
2004-10-26 07:46:27 51°24.47 2°56.856 9.3 227 12.1 101150 65
2004-10-26 07:46:33 51°24.49 2°56.868 8.6 226 12.1 101150 65
2004-10-26 07:46:38 51°24.506 2°56.878 9 314 12.1 101150 65
2004-10-26 07:46:42 51°24.519 2°56.885 8.8 312 12.2 101150 65
2004-10-26 07:46:48 51°24.538 2°56.898 8 319 12.2 101150 65
2004-10-26 07:46:52 51°24.551 2°56.905 7.5 317 12.2 101150 65
2004-10-26 07:46:58 51°24.571 2°56.917 7.9 42 12.2 101150 65
2004-10-26 07:47:03 51°24.587 2°56.925 9.3 314 12.2 101140 65
2004-10-26 07:47:08 51°24.603 2°56.935 8.9 317 12.2 101140 65
2004-10-26 07:47:11 51°24.613 2°56.941 8.5 313 12.2 101150 65
2004-10-26 07:47:18 51°24.635 2°56.956 8.9 313 12.2 101150 65
2004-10-26 07:47:22 51°24.648 2°56.963 8.2 313 12.2 101150 65
2004-10-26 07:47:28 51°24.667 2°56.977 7.5 317 12.2 101150 65
2004-10-26 07:47:32 51°24.679 2°56.986 8.5 38 12.2 101150 65
2004-10-26 07:47:38 51°24.699 2°56.999 7.9 320 12.2 101150 65
2004-10-26 07:47:43 51°24.714 2°57.01 8.6 318 12.1 101150 64
2004-10-26 07:47:48 51°24.73 2°57.021 7.6 322 12.1 101150 64
2004-10-26 07:47:53 51°24.746 2°57.034 9.1 315 12.2 101150 64
2004-10-26 07:47:58 51°24.762 2°57.045 7.7 228 12.2 101150 64
2004-10-26 07:48:03 51°24.777 2°57.057 8 318 12.2 101150 65
2004-10-26 07:48:06 51°24.787 2°57.064 8.9 316 12.2 101150 65
2004-10-26 07:48:12 51°24.805 2°57.078 7.5 326 12.2 101160 65
2004-10-26 07:48:18 51°24.824 2°57.092 7.7 327 12.2 101160 65
2004-10-26 07:48:23 51°24.84 2°57.104 7.5 327 12.2 101150 65
2004-10-26 07:48:28 51°24.856 2°57.116 7.5 321 12.2 101150 65
2004-10-26 07:48:32 51°24.868 2°57.125 7.6 322 12.2 101150 66
2004-10-26 07:48:38 51°24.887 2°57.139 7.9 323 12.2 101150 66
2004-10-26 07:48:43 51°24.903 2°57.151 7.8 323 12.2 101150 66
2004-10-26 07:48:48 51°24.919 2°57.162 8 319 12.2 101150 66
2004-10-26 07:48:52 51°24.932 2°57.172 8.6 318 12.2 101150 66
2004-10-26 07:48:57 51°24.947 2°57.184 8.9 42 12.2 101150 66
2004-10-26 07:49:03 51°24.967 2°57.198 7.7 319 12.2 101150 65
2004-10-26 07:49:07 51°24.979 2°57.208 7.6 315 12.2 101150 65
2004-10-26 07:49:11 51°24.992 2°57.217 7.6 323 12.2 101150 66
2004-10-26 07:49:18 51°25.014 2°57.233 7.3 320 12.2 101150 66
2004-10-26 07:49:23 51°25.03 2°57.245 7.8 317 12.2 101150 66
2004-10-26 07:49:28 51°25.046 2°57.255 7.2 321 12.2 101150 66
2004-10-26 07:49:32 51°25.058 2°57.266 8.3 306 12.2 101150 66
2004-10-26 07:49:38 51°25.077 2°57.279 8.5 320 12.2 101150 66
2004-10-26 07:49:42 51°25.09 2°57.289 7.8 320 12.2 101150 66
2004-10-26 07:49:48 51°25.109 2°57.303 8.4   12.2 101150 66
2004-10-26 07:49:53 51°25.125 2°57.315 7.4 316 12.2 101150 67
2004-10-26 07:49:55 51°25.131 2°57.32 8 227 12.2 101150 67
2004-10-26 07:50:03 51°25.157 2°57.34 7.4 316 12.2 101150 67
2004-10-26 07:50:08 51°25.172 2°57.352 7.2 322 12.2 101150 67
2004-10-26 07:50:11 51°25.182 2°57.36 7.2 228 12.2 101150 67
2004-10-26 07:50:18 51°25.204 2°57.376 7.3 313 12.2 101150 67
2004-10-26 07:50:23 51°25.22 2°57.389 7.3 318 12.2 101150 67
2004-10-26 07:50:28 51°25.236 2°57.399 7.5 321 12.2 101150 67
2004-10-26 07:50:31 51°25.246 2°57.407 8 317 12.2 101160 67
2004-10-26 07:50:36 51°25.261 2°57.42 8.7 317 12.2 101160 67
2004-10-26 07:50:42 51°25.281 2°57.434 8.5 318 12.2 101150 66
2004-10-26 07:50:48 51°25.299 2°57.449 8.9 313 12.2 101150 66
2004-10-26 07:50:51 51°25.309 2°57.455 7.9 42 12.2 101150 67
2004-10-26 07:50:58 51°25.331 2°57.474 8.6 313 12.2 101150 67
2004-10-26 07:51:03 51°25.348 2°57.486 8 319 12.2 101150 67
2004-10-26 07:51:08 51°25.364 2°57.498 7.5 229 12.2 101150 67
2004-10-26 07:51:10 51°25.37 2°57.502 7.8 319 12.3 101150 67
2004-10-26 07:51:18 51°25.396 2°57.521 7.5 314 12.3 101150 67
2004-10-26 07:51:23 51°25.412 2°57.534 7.7 228 12.2 101150 67
2004-10-26 07:51:26 51°25.421 2°57.542 7.4 320 12.2 101150 67
2004-10-26 07:51:31 51°25.437 2°57.554 7.6 318 12.3 101150 66
2004-10-26 07:51:38 51°25.46 2°57.571 8.2 320 12.3 101150 66
2004-10-26 07:51:47 51°25.489 2°57.594 8.5 227 12.3 101150 66
2004-10-26 07:51:51 51°25.501 2°57.604 8.7 316 12.2 101150 66
2004-10-26 07:51:58 51°25.523 2°57.623 8.4 227 12.2 101150 66
2004-10-26 07:52:02 51°25.536 2°57.632 8 315 12.3 101150 67
2004-10-26 07:52:06 51°25.549 2°57.642 8.9 317 12.3 101150 67
2004-10-26 07:52:10 51°25.561 2°57.653 7.4 321 12.3 101150 66
2004-10-26 07:52:18 51°25.587 2°57.673 9 317 12.3 101150 66
2004-10-26 07:52:22 51°25.6 2°57.682 7.7 317 12.3 101150 66
2004-10-26 07:52:28 51°25.619 2°57.698 8.5 310 12.3 101150 66
2004-10-26 07:52:32 51°25.632 2°57.707 7.3 314 12.3 101150 66
2004-10-26 07:52:38 51°25.651 2°57.723 7.6 315 12.3 101150 66
2004-10-26 07:52:43 51°25.667 2°57.735 8.3 309 12.3 101150 66
2004-10-26 07:52:48 51°25.682 2°57.749 7.2 311 12.3 101150 66
2004-10-26 07:52:51 51°25.692 2°57.756 7.3 318 12.3 101150 66
2004-10-26 07:52:58 51°25.715 2°57.773 7.3 316 12.3 101150 66
2004-10-26 07:53:03 51°25.731 2°57.786 8.1 314 12.3 101150 66
2004-10-26 07:53:07 51°25.743 2°57.795 7.8 313 12.3 101150 66
2004-10-26 07:53:11 51°25.756 2°57.806 7.3 313 12.2 101150 66
2004-10-26 07:53:18 51°25.779 2°57.824 7.9 315 12.2 101150 66
2004-10-26 07:53:22 51°25.791 2°57.834 8 312 12.3 101150 66
2004-10-26 07:53:28 51°25.81 2°57.849 7.8 311 12.3 101150 66
2004-10-26 07:53:32 51°25.824 2°57.86 7 314 12.3 101160 66
2004-10-26 07:53:38 51°25.843 2°57.875 7.1 44 12.3 101160 66
2004-10-26 07:53:43 51°25.859 2°57.887 7.6 42 12.2 101150 66
2004-10-26 07:53:48 51°25.875 2°57.901 7.7 313 12.2 101150 66
2004-10-26 07:53:53 51°25.892 2°57.913 6.8 312 12.3 101150 66
2004-10-26 07:53:58 51°25.908 2°57.925 7.6 43 12.3 101150 66
2004-10-26 07:54:03 51°25.924 2°57.939 7.9 313 12.3 101150 66
2004-10-26 07:54:08 51°25.941 2°57.95 6.7 318 12.3 101150 66
2004-10-26 07:54:12 51°25.954 2°57.961 7.4 229 12.3 101150 66
2004-10-26 07:54:18 51°25.974 2°57.975 7.7 226 12.3 101150 66
2004-10-26 07:54:22 51°25.986 2°57.986 7.1 308 12.3 101150 66
2004-10-26 07:54:27 51°26.003 2°57.997 6.2 312 12.3 101150 66
2004-10-26 07:54:31 51°26.015 2°58.008 6.9 312 12.3 101150 66
2004-10-26 07:54:38 51°26.038 2°58.025 7.2 309 12.3 101150 66
2004-10-26 07:54:43 51°26.054 2°58.037 6.9 315 12.3 101150 66
2004-10-26 07:54:48 51°26.07 2°58.049 6.5 310 12.3 101150 66
2004-10-26 07:54:49 51°26.073 2°58.052 5.9 228 12.2 101150 66
2004-10-26 07:54:58 51°26.101 2°58.075 6.5 314 12.2 101150 66
2004-10-26 07:55:02 51°26.114 2°58.085 6.2 312 12.2 101150 66
2004-10-26 07:55:08 51°26.132 2°58.101 7.4 308 12.2 101150 66
2004-10-26 07:55:12 51°26.145 2°58.111 6.5 309 12.2 101150 66
2004-10-26 07:55:18 51°26.164 2°58.127 6.4 315 12.2 101150 66
2004-10-26 07:55:23 51°26.18 2°58.139 6 43 12.2 101150 66
2004-10-26 07:55:28 51°26.196 2°58.152 7.1 308 12.2 101150 66
2004-10-26 07:55:31 51°26.206 2°58.158 5.3 42 12.3 101150 66